Regional Weather Roundup
Issued by NWS

Home | Current Version | Previous Version | Text Only | Print | Product List | Glossary On
Versions: 1 2 3 4 5 6 7 8 9 10 11 12 13 14 15 16 17 18 19 20 21 22 23 24 25 26 27 28 29 30 31 32 33 34 35 36 37 38 39 40 41 42 43 44 45 46 47 48 49 50
000
ASUS44 KMEG 172210
RWRTN
TENNESSEE HOURLY STATE WEATHER ROUNDUP
NATIONAL WEATHER SERVICE MEMPHIS TN
400 PM CST SUN DEC 17 2017

TNZ002-004-019-021-049-052-054-088>092-172300-
WEST TENNESSEE

CITY           SKY/WX    TMP DP  RH WIND       PRES   REMARKS
MEMPHIS INTL   CLOUDY    48  45  89 SW3       30.10R
NWS MEMPHIS      N/A     48 N/A N/A MISG        N/A
JACKSON        CLOUDY    48  47  96 CALM      30.09F FOG
DYERSBURG      CLOUDY    47  44  90 CALM      30.10S
SOMERVILLE     CLOUDY    48  46  93 CALM      30.07S FOG
COVINGTON      CLOUDY    46  45  93 CALM      30.10R
UNION CITY     CLOUDY    48  45  87 S3        30.09R
BOLIVAR        CLOUDY    48  46  93 CALM      30.08F
PARIS          CLOUDY    46  45  93 S3        30.08S FOG
HUNTINGDON     CLOUDY    46  45  93 S3        30.08S
LEXINGTON      CLOUDY    46  46 100 CALM      30.10R FOG
SELMER         CLOUDY    48  46  93 CALM      30.09S FOG
SAVANNAH       CLOUDY    48  46  93 CALM      30.10R
$$

TNZ008-025-027-028-033-062-065-066-172300-
NORTH MIDDLE TENNESSEE

CITY           SKY/WX    TMP DP  RH WIND       PRES   REMARKS
NASHVILLE      CLOUDY    47  44  90 S6        30.12R FOG
PORTLAND       CLOUDY    45  43  93 S8        30.10R
CLARKSVILLE    CLOUDY    44  41  89 SE5       30.10S FOG
SMYRNA         CLOUDY    46  45  96 SE3       30.12F FOG
COOKEVILLE     CLOUDY    46  41  81 CALM      30.10S
GALLATIN       CLOUDY    45  43  93 E3        30.14R
CROSSVILLE     CLOUDY    42  38  85 VRB3      30.11S
$$

TNZ061-075-076-078-094-096-097-172300-
SOUTH MIDDLE TENNESSEE

CITY           SKY/WX    TMP DP  RH WIND       PRES   REMARKS
FAYETTEVILLE   CLOUDY    48  45  87 S6        30.11R
TULLAHOMA      CLOUDY    50  45  81 S5        30.10S
WINCHESTER     CLOUDY    46  43  87 SE9       30.13R
MCMINNVILLE    CLOUDY    48  43  81 CALM      30.10F
COLUMBIA       CLOUDY    46  46 100 CALM      30.09S FOG
SHELBYVILLE    FOG       46  46 100 CALM      30.11S VSB 1
$$

TNZ017-018-042-046-047-172300-
NORTHEAST TENNESSEE

CITY           SKY/WX    TMP DP  RH WIND       PRES   REMARKS
TRI CITIES     CLOUDY    42  36  79 W3        30.16R
ELIZABETHTON   CLOUDY    45  32  61 CALM      30.15R
$$

TNZ012-013-036-069-073-074-172300-
CENTRAL EAST TENNESSEE

CITY           SKY/WX    TMP DP  RH WIND       PRES   REMARKS
KNOXVILLE      CLOUDY    42  41  96 E5        30.15S
OAK RIDGE      CLOUDY    43  38  82 CALM      30.17F
DOWNTOWN KNOXV CLOUDY    45  37  76 CALM      30.17S
GATLINBURG     CLOUDY    41  39  93 CALM      30.17R
MORRISTOWN     CLOUDY    41  39  93 N3        30.15S
JACKSBORO      CLOUDY    43  37  81 CALM      30.17F
$$

TNZ083-085-099-172300-
SOUTHEAST TENNESSEE

CITY           SKY/WX    TMP DP  RH WIND       PRES   REMARKS
CHATTANOOGA    CLOUDY    43  40  89 CALM      30.17R FOG
DAYTON         MOCLDY    43  43 100 CALM      30.16R FOG
$$

SKY/WX REPORTED AS FAIR MEANS FEW OR NO CLOUDS BELOW
12 THOUSAND FEET.





USA.gov is the U.S. government's official web portal to all federal, state and local government web resources and services.